Location: Cabeza de los Veneras
(40.2000°N, 5.2000°W)
Time: 02:25:47
(UTC+00:00)

Cosmos 1980 Rocket - Pass Details

Date: 18 April 2024
Orbit: 827 x 851 km, 71.0° (Epoch: 25 May)

Event Time Altitude Azimuth Distance (km) Brightness Sun altitude
Exits shadow 23:36:55 26° 315° (NW) 1,593 4.0 -37.6°
Drops below altitude 10° 23:41:02 10° 1° (N) 2,460 5.3 -37.7°
Sets 23:43:53 0° 14° (NNE) 3,403 6.1 -37.9°
